Temperature
7 8 9 9 10 10 10 11 11 11 12 12 12 12 13 13 13 13 13 13 14 14 14 14 14 14 14 14 14 15 15 16 15 15 16 16 16 16 16 16 17 17 17
7 9 9 9 10 10 10 10 11 11 11 11 12 12 12 12 12 13 13 13 13 13 13 14 14 14 14 14 14 14 14 15 15 15 15 16 16 16 16 16 16 16 16
8 9 10 9 9 10 10 10 10 10 10 11 11 11 11 12 12 12 12 12 13 13 13 13 13 13 14 14 14 14 14 14 15 15 15 15 16 16 16 16 16 16 16
8 9 9 9 9 9 10 10 10 10 10 10 10 10 10 10 11 11 11 12 12 12 12 12 12 13 13 13 14 14 14 14 14 14 15 15 15 15 15 16 16 16 16
8 9 9 9 9 9 9 9 9 9 9 9 9 9 9 9 9 9 10 10 10 11 11 11 11 12 12 13 13 13 13 14 14 14 14 15 15 15 15 15 16 16 16
8 8 9 9 9 9 9 8 8 8 8 7 7 7 7 7 7 7 7 8 8 8 9 9 10 10 11 12 12 13 13 13 14 14 14 14 15 15 15 15 15 16 16
8 8 8 8 8 8 8 8 7 7 6 6 6 6 6 6 6 5 6 6 6 6 7 7 8 8 9 10 11 12 12 13 13 13 13 14 14 14 15 15 15 15 16
8 8 8 8 8 7 7 6 6 5 5 5 5 4 5 5 5 5 5 5 5 5 5 5 6 7 7 8 10 11 11 12 12 13 13 13 13 14 14 15 15 15 15
7 8 8 7 7 6 6 5 5 4 4 4 4 4 4 4 4 4 4 4 4 4 4 4 5 5 6 7 8 9 10 11 11 12 13 13 13 13 13 14 14 15 15
7 7 7 6 5 5 4 4 4 3 3 3 3 3 3 3 3 3 3 3 3 3 3 4 4 4 5 6 7 7 8 9 10 11 11 12 13 13 13 14 14 14 15
6 6 5 5 4 4 3 3 3 3 2 2 2 2 2 2 3 3 3 2 2 3 3 3 3 3 4 5 5 6 7 8 9 10 10 11 12 12 13 13 13 14 14
5 5 4 3 3 3 3 3 2 2 2 2 2 2 2 1 1 1 2 2 2 2 2 2 2 3 3 4 4 5 6 7 8 9 9 10 11 11 12 13 13 13 14
4 3 3 3 2 2 2 2 2 2 1 1 1 1 1 1 1 1 0 1 1 1 1 2 2 2 2 2 3 4 4 5 6 7 8 9 10 10 11 12 13 13 13
3 2 2 2 2 2 1 1 1 1 1 1 0 -0 -0 -0 -0 -1 -1 -1 -1 -1 -0 -0 0 1 1 1 2 2 3 3 4 5 7 8 9 9 10 11 12 13 13
2 2 1 1 1 1 1 1 1 0 0 -0 -1 -1 -1 -2 -2 -2 -2 -2 -3 -3 -2 -2 -2 -1 -0 0 1 1 2 2 3 4 5 7 8 8 9 10 11 12 12
1 1 1 1 1 1 1 1 0 -0 -1 -1 -1 -2 -2 -3 -3 -4 -4 -4 -4 -4 -4 -4 -4 -3 -2 -1 -1 0 1 1 2 3 4 5 6 7 8 9 10 11 12
1 1 1 1 1 1 1 0 -0 -1 -1 -2 -3 -3 -4 -4 -5 -5 -5 -5 -5 -5 -5 -5 -5 -4 -4 -3 -2 -1 -0 0 1 2 3 3 5 6 7 8 9 10 11
1 0 0 0 1 0 0 -0 -1 -2 -2 -3 -4 -4 -5 -5 -6 -6 -7 -7 -7 -7 -7 -6 -6 -6 -5 -4 -3 -2 -1 -0 0 1 1 2 3 4 6 7 8 9 10
-0 -0 -0 0 0 0 -0 -1 -2 -2 -3 -4 -5 -5 -6 -6 -7 -7 -8 -8 -8 -8 -8 -8 -7 -7 -7 -6 -5 -4 -3 -2 -1 -0 0 1 1 2 4 6 7 8 9
-1 -1 -0 -0 -0 -1 -1 -2 -2 -3 -4 -4 -5 -6 -7 -7 -8 -8 -9 -9 -9 -9 -9 -9 -9 -9 -9 -8 -7 -6 -4 -3 -2 -2 -2 -1 -1 0 2 4 6 8 9
-1 -1 -0 -0 -1 -1 -2 -3 -3 -4 -5 -5 -6 -7 -7 -8 -9 -9 -10 -10 -10 -11 -11 -10 -10 -10 -10 -10 -9 -7 -4 -3 -3 -4 -3 -3 -2 -1 0 2 4 6 8
-1 -0 -0 -1 -2 -3 -4 -4 -5 -5 -5 -6 -7 -7 -8 -9 -9 -10 -11 -11 -11 -12 -11 -11 -11 -11 -11 -11 -11 -11 -9 -7 -5 -4 -4 -4 -3 -2 -1 1 2 4 6
-1 -1 -1 -2 -3 -3 -4 -5 -5 -5 -5 -6 -7 -8 -9 -10 -10 -11 -11 -12 -12 -12 -13 -12 -12 -12 -12 -12 -12 -12 -10 -9 -9 -7 -6 -5 -5 -4 -2 -1 1 2 4
-1 -1 -2 -2 -3 -4 -4 -5 -5 -6 -7 -7 -8 -9 -10 -10 -11 -11 -12 -12 -13 -13 -13 -13 -13 -13 -13 -13 -12 -12 -11 -11 -10 -8 -8 -7 -6 -5 -3 -2 -0 1 3
-1 -1 -2 -3 -3 -4 -5 -5 -6 -7 -8 -8 -9 -10 -10 -11 -11 -12 -12 -13 -13 -13 -13 -13 -13 -13 -13 -13 -13 -12 -11 -11 -10 -10 -9 -8 -7 -6 -4 -3 -1 0 2
-2 -2 -2 -3 -4 -4 -5 -6 -7 -7 -8 -9 -10 -11 -11 -12 -12 -12 -13 -13 -13 -13 -13 -14 -14 -14 -13 -13 -13 -12 -12 -11 -10 -10 -9 -9 -8 -7 -5 -4 -2 -1 0
Wind_Speed
12 24 27 29 29 30 30 30 31 31 31 31 31 31 31 31 30 30 31 31 30 30 30 29 29 28 27 25 22 20 19 17 15 13 10 9 9 8 6 6 5 5 5
16 23 26 28 29 29 30 30 30 30 30 30 30 30 30 30 30 30 30 30 30 30 30 30 29 28 28 27 26 24 21 19 17 16 13 10 10 10 9 8 7 7 8
19 23 25 28 28 29 29 29 30 30 30 30 30 30 30 30 30 30 30 30 30 30 30 29 29 28 28 28 27 26 25 22 19 17 15 11 10 11 11 10 10 10 10
19 22 25 28 28 29 29 30 29 30 29 29 29 29 29 30 30 30 30 31 30 30 29 29 29 28 28 28 28 27 26 25 23 19 14 11 11 12 12 12 12 12 12
19 23 26 28 28 29 29 29 29 30 30 30 29 29 29 29 30 29 30 31 30 30 29 29 29 29 29 29 28 28 27 26 25 20 15 13 12 14 15 14 14 15 14
20 24 27 29 29 28 29 29 29 29 29 29 29 29 29 29 29 29 29 30 30 30 29 29 29 29 29 29 29 28 28 27 25 19 16 14 13 16 18 17 16 17 17
17 22 26 28 28 28 28 29 29 29 29 29 29 29 29 29 29 28 29 29 29 29 29 29 29 29 29 29 28 28 28 29 23 19 17 14 14 17 19 19 19 19 20
17 21 24 28 28 28 27 28 28 28 28 28 28 29 29 29 30 29 30 29 29 29 28 29 29 29 29 29 28 28 28 28 22 19 19 16 16 18 19 20 20 20 21
18 21 24 25 26 27 26 27 28 27 27 27 28 29 29 30 30 29 30 30 29 29 28 28 29 29 29 28 28 28 29 27 21 20 19 17 17 18 20 20 21 21 22
16 20 23 25 25 25 23 25 26 26 26 26 27 28 28 28 28 29 29 29 29 28 28 29 29 29 29 28 28 28 28 23 21 21 18 18 22 22 21 21 21 22 22
12 16 21 22 23 23 20 22 24 23 24 24 24 26 25 24 24 25 27 28 28 28 28 28 29 29 28 26 28 28 24 19 23 18 18 21 25 25 23 21 21 22 23
11 9 18 19 20 20 19 19 21 19 21 21 22 24 23 22 22 23 25 26 27 27 28 28 29 27 24 22 24 24 19 21 19 17 19 25 27 26 25 23 22 21 23
6 8 13 16 18 19 18 17 18 18 19 20 21 23 22 21 20 21 20 21 22 24 23 25 24 22 21 21 21 21 20 19 17 18 20 26 27 27 26 25 23 22 22
7 8 9 14 16 17 18 17 17 17 17 18 19 21 21 18 18 19 18 19 19 20 21 21 21 23 22 22 21 20 20 18 18 19 20 26 28 28 27 26 24 23 22
7 8 9 11 15 16 16 16 16 17 17 18 18 20 21 18 17 18 18 18 19 20 20 19 20 21 21 21 20 20 20 21 21 20 20 26 28 28 27 25 24 24 23
6 7 9 8 15 15 15 16 16 17 18 18 18 20 21 20 18 18 17 16 18 20 20 20 20 18 17 17 17 19 20 21 19 20 21 24 26 26 25 24 23 23 23
4 6 9 10 14 15 15 16 17 18 18 17 18 20 20 20 20 18 16 15 18 20 20 19 18 16 14 14 14 16 17 18 19 21 21 19 20 21 22 22 22 21 22
5 6 8 11 12 14 15 16 17 18 18 18 18 19 20 20 20 18 15 14 19 19 18 15 10 12 13 13 14 14 13 15 18 19 18 17 16 15 17 20 19 19 20
5 6 7 10 11 14 16 17 17 18 18 18 18 18 20 20 21 19 16 15 19 16 15 13 10 11 13 14 14 14 13 14 15 15 13 14 14 13 13 16 18 18 17
5 6 6 8 11 14 15 14 13 14 16 17 17 18 21 21 21 20 16 16 18 12 8 9 12 11 11 13 16 15 15 16 13 10 10 9 9 11 14 15 15 15 17
5 6 6 7 9 12 7 8 8 9 8 12 15 19 21 21 21 20 16 16 15 9 10 10 11 12 10 11 12 14 13 12 9 6 7 7 6 9 13 15 14 13 13
5 6 7 8 8 11 9 9 7 8 7 12 15 18 19 21 22 19 18 15 15 9 10 10 11 10 11 9 10 11 8 6 5 10 8 6 6 8 11 15 15 14 14
5 7 8 8 8 11 14 12 12 6 4 6 8 8 18 22 21 21 20 18 16 9 9 10 10 11 12 10 6 6 6 6 12 6 6 5 8 9 10 11 13 15 15
5 6 7 8 8 11 14 10 11 10 11 11 9 10 19 21 20 20 20 19 16 13 10 11 10 10 11 11 9 7 9 10 8 7 5 6 8 10 10 13 14 13 14
5 6 7 7 7 10 12 9 9 9 8 10 9 10 10 16 19 20 21 19 16 14 11 11 12 10 9 10 10 10 11 10 10 10 13 10 9 7 9 12 11 10 12
5 5 6 8 8 8 10 9 9 11 11 14 14 12 11 10 14 18 21 19 18 15 12 12 10 11 10 11 10 9 10 9 9 9 12 15 13 10 11 10 10 9 9
Wind_Direction
344 351 1 10 14 16 17 17 18 18 17 16 16 15 15 14 13 12 11 9 8 6 4 2 1 0 358 354 346 338 332 325 317 310 303 299 297 284 259 244 252 258 221
350 356 4 13 15 16 17 17 17 17 16 15 14 13 13 12 11 11 9 7 5 3 2 0 359 358 357 356 353 345 334 325 318 310 301 292 288 285 271 245 241 249 231
3 0 5 14 16 17 17 17 17 16 15 14 13 12 11 10 9 9 7 5 3 1 359 358 356 356 355 353 351 349 343 331 321 311 302 290 279 278 272 255 241 244 231
10 7 8 16 16 17 17 16 16 15 14 14 13 12 11 9 7 6 5 2 1 359 357 356 354 353 352 350 348 346 344 341 332 318 304 287 275 274 271 261 244 241 231
20 15 12 18 17 17 17 16 15 14 13 13 12 11 10 9 6 5 3 0 358 357 355 354 352 351 349 348 346 344 343 342 338 329 311 293 276 273 270 266 252 241 234
27 21 16 19 18 17 17 16 15 14 13 12 11 10 9 7 4 3 2 359 357 355 354 353 350 349 347 346 344 343 342 341 337 329 315 296 280 276 272 265 257 244 236
32 27 22 21 18 17 16 16 14 14 13 12 10 9 8 5 2 1 360 356 355 354 352 351 348 347 345 344 343 342 341 339 334 330 322 306 289 283 276 267 260 248 237
38 31 26 22 19 16 15 15 13 13 12 11 10 8 6 4 1 359 357 354 353 351 350 349 347 345 344 343 342 341 340 338 337 334 325 312 299 291 280 270 263 253 241
44 36 28 24 20 16 14 14 12 12 12 11 9 7 6 3 360 358 355 352 352 350 350 348 346 344 343 341 340 339 338 337 343 333 324 318 311 301 289 277 267 258 246
45 38 30 24 20 14 12 14 12 12 11 11 9 6 5 2 358 356 353 350 351 349 349 346 345 343 342 340 338 337 337 338 337 327 322 317 320 314 299 286 274 262 252
36 35 29 23 18 14 13 13 11 10 9 9 7 5 2 358 354 354 349 349 349 348 347 344 344 343 342 338 335 335 336 333 328 322 318 316 320 318 310 299 285 269 257
19 21 26 19 15 15 14 11 10 6 3 4 3 2 358 354 352 352 347 348 348 346 345 342 342 342 339 334 331 332 329 327 324 319 314 314 315 315 313 306 295 279 262
9 10 16 16 14 15 11 9 10 3 0 360 360 359 356 352 349 347 344 343 344 345 343 340 339 337 333 331 326 323 321 323 318 315 310 310 311 312 310 306 298 286 270
14 0 359 13 12 12 10 5 8 1 358 356 355 356 355 350 346 344 341 339 342 342 338 336 333 330 329 326 322 318 319 317 312 309 306 307 309 308 305 302 296 287 275
10 348 343 10 11 8 8 4 2 356 353 350 351 353 353 348 343 342 338 337 339 340 336 333 330 326 327 324 320 318 315 312 307 304 304 304 304 303 302 299 294 287 278
355 340 337 8 11 8 5 359 356 351 348 347 348 348 349 347 342 340 336 335 338 337 333 330 324 323 323 320 316 316 311 306 303 302 301 301 301 301 300 298 294 288 281
341 335 340 6 8 5 2 358 353 347 345 342 342 342 343 343 340 338 332 333 336 334 331 329 323 326 321 319 315 313 309 305 302 300 299 295 295 300 303 302 295 290 285
343 336 334 356 359 1 359 353 348 343 340 336 334 335 337 338 337 335 329 329 332 332 331 327 327 328 322 319 316 312 307 304 299 296 294 291 292 298 306 311 308 297 288
339 322 320 336 352 355 353 348 342 337 333 330 330 331 334 335 334 331 323 325 329 328 327 326 329 324 321 320 315 310 307 301 294 293 291 290 292 302 314 321 322 317 303
325 308 305 333 353 353 349 343 335 331 328 327 327 330 331 330 330 328 321 325 325 324 323 322 322 320 318 317 315 310 304 293 286 284 287 294 302 321 332 330 327 324 321
314 315 326 350 351 353 347 341 332 329 322 320 325 329 326 326 327 323 322 322 320 319 319 317 321 319 321 323 319 318 302 283 279 304 301 301 316 338 338 334 330 327 323
309 323 344 353 344 345 338 326 314 313 307 314 322 323 326 327 326 326 323 320 316 315 314 316 318 318 322 330 322 322 316 311 342 325 305 309 339 344 337 331 325 325 320
319 337 349 341 337 338 338 334 332 315 308 325 330 323 329 328 325 322 320 318 315 312 311 310 308 317 318 317 312 307 309 315 325 286 294 324 338 332 327 322 320 319 314
333 341 343 337 333 339 343 342 342 346 337 332 329 324 327 327 324 323 321 317 314 312 306 306 315 306 307 311 309 283 287 296 297 308 309 315 315 319 317 319 314 309 310
347 342 339 336 334 340 343 340 337 332 324 324 324 321 322 324 323 322 321 317 313 311 303 299 301 296 299 297 298 296 293 288 274 286 300 310 312 304 308 307 303 303 308
342 341 343 345 340 337 338 334 330 325 326 329 331 329 329 324 321 318 318 314 310 307 302 300 294 292 293 290 289 288 289 288 291 293 295 304 308 310 307 299 298 302 308
Height
1616 1614 1611 1608 1604 1601 1597 1594 1590 1587 1584 1581 1578 1576 1573 1571 1568 1566 1564 1562 1560 1559 1557 1555 1554 1552 1550 1549 1548 1547 1546 1546 1545 1545 1545 1544 1544 1544 1544 1544 1544 1545 1545
1618 1615 1611 1608 1605 1601 1598 1594 1591 1587 1584 1581 1578 1575 1572 1569 1567 1564 1562 1560 1558 1556 1554 1553 1551 1550 1548 1547 1545 1544 1543 1543 1543 1542 1542 1542 1542 1542 1543 1543 1543 1543 1544
1618 1615 1611 1608 1605 1601 1597 1594 1590 1587 1583 1580 1577 1573 1571 1568 1565 1562 1560 1557 1555 1553 1551 1550 1548 1546 1545 1544 1543 1542 1541 1540 1539 1539 1539 1539 1540 1540 1540 1541 1541 1542 1542
1618 1615 1611 1608 1604 1601 1597 1593 1589 1586 1582 1578 1575 1571 1568 1565 1562 1559 1557 1554 1551 1549 1547 1546 1544 1542 1541 1540 1539 1538 1537 1536 1535 1535 1535 1536 1536 1537 1537 1538 1539 1539 1540
1618 1614 1611 1608 1604 1600 1596 1592 1588 1584 1580 1576 1572 1569 1566 1562 1559 1556 1553 1550 1548 1545 1543 1541 1539 1538 1536 1535 1534 1534 1533 1532 1531 1531 1531 1531 1532 1533 1534 1535 1536 1537 1538
1617 1614 1611 1607 1603 1599 1594 1590 1586 1581 1577 1573 1569 1566 1563 1559 1556 1552 1549 1547 1544 1541 1538 1536 1534 1532 1531 1530 1529 1528 1527 1527 1527 1527 1527 1527 1527 1528 1529 1531 1532 1533 1534
1616 1613 1610 1606 1601 1597 1592 1588 1584 1579 1575 1571 1567 1564 1560 1557 1553 1549 1546 1543 1540 1537 1534 1531 1529 1527 1525 1524 1523 1522 1521 1521 1521 1521 1522 1522 1522 1523 1524 1526 1527 1529 1530
1615 1612 1608 1604 1600 1595 1590 1586 1581 1577 1573 1569 1565 1561 1558 1554 1551 1547 1543 1540 1536 1533 1530 1527 1525 1522 1520 1518 1517 1516 1515 1515 1514 1515 1516 1517 1518 1518 1519 1520 1522 1524 1526
1614 1611 1607 1602 1598 1593 1589 1584 1579 1575 1571 1567 1563 1559 1555 1552 1548 1544 1540 1536 1533 1529 1526 1523 1520 1517 1514 1512 1511 1510 1508 1507 1507 1508 1509 1510 1512 1512 1513 1514 1516 1518 1520
1613 1609 1605 1600 1595 1591 1586 1582 1577 1573 1569 1565 1561 1557 1553 1549 1545 1542 1538 1533 1529 1526 1522 1519 1515 1512 1509 1507 1505 1503 1501 1500 1500 1501 1501 1503 1504 1505 1507 1508 1509 1511 1514
1610 1607 1602 1597 1592 1588 1583 1579 1575 1571 1567 1562 1558 1554 1550 1546 1542 1538 1534 1530 1526 1522 1518 1514 1510 1506 1503 1501 1499 1497 1495 1493 1493 1493 1494 1495 1495 1496 1498 1500 1502 1504 1507
1608 1604 1600 1595 1590 1586 1582 1578 1574 1570 1565 1561 1556 1552 1548 1543 1539 1534 1531 1527 1522 1518 1514 1510 1505 1501 1497 1494 1493 1491 1488 1486 1485 1485 1485 1487 1487 1488 1489 1492 1494 1497 1499
1607 1603 1598 1593 1589 1585 1581 1577 1573 1568 1564 1559 1554 1550 1545 1540 1536 1531 1526 1521 1517 1513 1509 1505 1501 1496 1492 1488 1486 1484 1481 1479 1478 1477 1477 1478 1479 1479 1481 1483 1486 1489 1492
1606 1602 1597 1592 1589 1585 1580 1576 1571 1567 1562 1557 1551 1546 1541 1536 1532 1527 1522 1517 1512 1508 1503 1499 1495 1491 1487 1483 1480 1477 1475 1472 1470 1469 1469 1470 1470 1471 1472 1474 1477 1480 1483
1605 1600 1596 1592 1588 1584 1580 1575 1570 1565 1560 1555 1550 1544 1538 1533 1528 1523 1518 1513 1508 1504 1499 1494 1490 1485 1481 1477 1474 1470 1467 1465 1463 1462 1461 1461 1462 1463 1464 1466 1468 1471 1475
1604 1599 1595 1591 1587 1583 1579 1574 1569 1564 1559 1553 1548 1542 1536 1530 1525 1519 1514 1509 1504 1499 1495 1490 1485 1480 1475 1471 1467 1464 1461 1458 1456 1455 1454 1453 1454 1454 1455 1457 1459 1462 1465
1602 1598 1594 1591 1587 1582 1578 1573 1568 1562 1556 1551 1545 1539 1533 1527 1521 1516 1510 1505 1500 1495 1490 1485 1480 1475 1470 1465 1461 1457 1454 1451 1449 1447 1446 1446 1445 1446 1447 1448 1450 1452 1456
1602 1598 1594 1590 1586 1581 1576 1571 1566 1560 1554 1547 1541 1535 1529 1524 1518 1512 1507 1501 1496 1491 1486 1481 1475 1469 1464 1459 1454 1450 1447 1444 1442 1440 1439 1438 1438 1438 1438 1439 1441 1443 1446
1600 1596 1592 1588 1584 1579 1574 1569 1563 1557 1551 1544 1538 1532 1526 1520 1514 1509 1503 1497 1492 1487 1482 1477 1471 1466 1459 1454 1448 1444 1440 1437 1435 1433 1432 1432 1431 1431 1430 1431 1432 1435 1437
1599 1594 1591 1587 1582 1577 1571 1565 1560 1554 1547 1541 1535 1529 1523 1517 1511 1505 1499 1493 1488 1482 1477 1472 1467 1462 1457 1450 1444 1438 1434 1431 1429 1427 1426 1426 1425 1424 1423 1423 1424 1426 1429
1597 1593 1589 1584 1579 1573 1567 1560 1553 1547 1542 1536 1531 1525 1519 1513 1506 1500 1494 1489 1483 1478 1473 1468 1463 1458 1453 1448 1440 1432 1427 1425 1423 1422 1422 1421 1420 1419 1418 1417 1417 1418 1420
1594 1590 1586 1581 1576 1570 1564 1557 1551 1544 1538 1532 1527 1521 1515 1508 1502 1496 1490 1484 1479 1473 1469 1464 1460 1454 1449 1447 1442 1434 1426 1420 1419 1418 1418 1417 1416 1414 1412 1411 1411 1411 1413
1592 1588 1584 1579 1573 1567 1561 1554 1547 1541 1534 1528 1521 1515 1509 1503 1497 1491 1485 1480 1474 1469 1464 1460 1456 1451 1446 1443 1442 1440 1434 1425 1417 1412 1413 1412 1411 1409 1408 1406 1406 1406 1407
1590 1586 1581 1576 1571 1565 1558 1551 1544 1537 1530 1524 1517 1510 1505 1499 1493 1487 1481 1475 1470 1465 1460 1455 1451 1448 1443 1439 1437 1435 1434 1429 1424 1413 1408 1408 1407 1405 1403 1402 1401 1401 1401
1587 1583 1579 1574 1569 1562 1556 1549 1542 1535 1528 1521 1514 1507 1501 1495 1489 1484 1477 1471 1466 1460 1455 1450 1446 1442 1439 1435 1432 1430 1427 1425 1422 1418 1408 1403 1402 1401 1400 1398 1396 1396 1396
1585 1581 1577 1572 1566 1560 1554 1547 1540 1533 1525 1518 1510 1503 1497 1491 1485 1479 1473 1467 1461 1455 1450 1444 1440 1436 1433 1430 1427 1425 1423 1421 1418 1415 1409 1402 1398 1396 1395 1393 1392 1392 1392